,,PA_Meas_PMT16A,,PR_Meas_QMR101_102,,RH_Meas_QMH101,,SR_Meas_QMS101,,TA_Meas_QMH101,,GenWind,,GenWind,
time,status,PA,status,PR,status,RH,status,SR,status,TA,status,DirAvg,status,SpdAvg,
2012-10-27, 00:00:04,VALID,916.285,VALID,0,VALID,97.3815,VALID,0,VALID,18.9077,VALID,342,VALID,0,
2012-10-27, 00:01:04,VALID,916.287,VALID,0,VALID,97.4044,VALID,0,VALID,18.9062,VALID,342,VALID,0,
2012-10-27, 00:02:04,VALID,916.263,VALID,0,VALID,97.4044,VALID,0,VALID,18.8867,VALID,342,VALID,0,
2012-10-27, 00:03:04,VALID,916.26,VALID,0,VALID,97.3968,VALID,0,VALID,18.9272,VALID,342,VALID,0,
2012-10-27, 00:04:04,VALID,916.23,VALID,0,VALID,97.412,VALID,0,VALID,18.9077,VALID,342,VALID,0,
2012-10-27, 00:05:04,VALID,916.257,VALID,0,VALID,97.3891,VALID,0,VALID,18.9077,VALID,342,VALID,0,
2012-10-27, 00:06:04,VALID,916.21,VALID,0,VALID,97.412,VALID,0,VALID,18.9077,VALID,342,VALID,0,
2012-10-27, 00:07:04,VALID,916.261,VALID,0,VALID,97.4044,VALID,0,VALID,18.9272,VALID,342,VALID,0,
2012-10-27, 00:08:04,VALID,916.247,VALID,0,VALID,97.3815,VALID,0,VALID,18.9257,VALID,342,VALID,0,
2012-10-27, 00:09:04,VALID,916.261,VALID,0,VALID,97.3815,VALID,0,VALID,18.9662,VALID,342,VALID,0,
2012-10-27, 00:10:04,VALID,916.292,VALID,0,VALID,97.3891,VALID,0,VALID,18.9857,VALID,342,VALID,0,
2012-10-27, 00:11:04,VALID,916.241,VALID,0,VALID,97.3739,VALID,0,VALID,18.9662,VALID,342,VALID,0,
2012-10-27, 00:12:04,VALID,916.246,VALID,0,VALID,97.3663,VALID,0.107441,VALID,18.9842,VALID,342,VALID,0,
2012-10-27, 00:13:04,VALID,916.231,VALID,0,VALID,97.351,VALID,0,VALID,18.9842,VALID,342,VALID,0,
2012-10-27, 00:14:04,VALID,916.249,VALID,0,VALID,97.3434,VALID,0,VALID,18.9842,VALID,349,VALID,0,
2012-10-27, 00:15:04,VALID,916.211,VALID,0,VALID,97.3358,VALID,0.107441,VALID,18.9828,VALID,349,VALID,0,
2012-10-27, 00:16:04,VALID,916.219,VALID,0,VALID,97.3205,VALID,0.107441,VALID,19.0037,VALID,349,VALID,0,
2012-10-27, 00:17:04,VALID,916.192,VALID,0,VALID,97.3129,VALID,0.107441,VALID,18.9828,VALID,349,VALID,0,
2012-10-27, 00:18:04,VALID,916.179,VALID,0,VALID,97.3053,VALID,0.107441,VALID,19.0037,VALID,349,VALID,0,
2012-10-27, 00:19:04,VALID,916.151,VALID,0,VALID,97.29,VALID,0,VALID,19.0037,VALID,349,VALID,0,
2012-10-27, 00:20:04,VALID,916.131,VALID,0,VALID,97.29,VALID,0,VALID,19.0023,VALID,349,VALID,0,
2012-10-27, 00:21:04,VALID,916.119,VALID,0,VALID,97.2748,VALID,0.107441,VALID,19.0037,VALID,350,VALID,0,
2012-10-27, 00:22:04,VALID,916.118,VALID,0,VALID,97.2824,VALID,0,VALID,19.0232,VALID,349,VALID,0,
2012-10-27, 00:23:04,VALID,916.095,VALID,0,VALID,97.2748,VALID,0,VALID,19.0218,VALID,350,VALID,0,
2012-10-27, 00:24:04,VALID,916.083,VALID,0,VALID,97.2672,VALID,0.107441,VALID,19.0232,VALID,350,VALID,0,
2012-10-27, 00:25:04,VALID,916.047,VALID,0,VALID,97.2748,VALID,0.107441,VALID,19.0218,VALID,350,VALID,0,
2012-10-27, 00:26:04,VALID,916.032,VALID,0,VALID,97.2595,VALID,0,VALID,19.0218,VALID,350,VALID,0,
2012-10-27, 00:27:04,VALID,916.012,VALID,0,VALID,97.2519,VALID,0,VALID,19.0427,VALID,350,VALID,0,
2012-10-27, 00:28:04,VALID,915.988,VALID,0,VALID,97.2443,VALID,0,VALID,19.0218,VALID,350,VALID,0,
2012-10-27, 00:29:04,VALID,915.987,VALID,0,VALID,97.229,VALID,0.107441,VALID,19.0232,VALID,350,VALID,0,
2012-10-27, 00:30:04,VALID,915.983,VALID,0,VALID,97.2519,VALID,0,VALID,19.0232,VALID,350,VALID,0,
2012-10-27, 00:31:04,VALID,915.938,VALID,0,VALID,97.2214,VALID,0.107441,VALID,19.0427,VALID,350,VALID,0,
2012-10-27, 00:32:04,VALID,915.919,VALID,0,VALID,97.2367,VALID,0,VALID,19.0413,VALID,350,VALID,0,
2012-10-27, 00:33:04,VALID,915.916,VALID,0,VALID,97.2443,VALID,0.107441,VALID,19.0413,VALID,350,VALID,0,
2012-10-27, 00:34:04,VALID,915.875,VALID,0,VALID,97.2214,VALID,0,VALID,19.0622,VALID,350,VALID,0,
2012-10-27, 00:35:04,VALID,915.852,VALID,0,VALID,97.2214,VALID,0.107441,VALID,19.0608,VALID,350,VALID,0,
2012-10-27, 00:36:04,VALID,915.843,VALID,0,VALID,97.2214,VALID,0,VALID,19.0817,VALID,350,VALID,0,
2012-10-27, 00:37:04,VALID,915.823,VALID,0,VALID,97.2443,VALID,0,VALID,19.0608,VALID,350,VALID,0,
2012-10-27, 00:38:04,VALID,915.792,VALID,0,VALID,97.2595,VALID,0.107441,VALID,19.0413,VALID,349,VALID,0,
2012-10-27, 00:39:04,VALID,915.733,VALID,0,VALID,97.2443,VALID,0.107441,VALID,19.0218,VALID,349,VALID,0,
2012-10-27, 00:40:04,VALID,915.71,VALID,0,VALID,97.2443,VALID,0.107441,VALID,19.0622,VALID,350,VALID,0,
2012-10-27, 00:41:04,VALID,915.657,VALID,0,VALID,97.2519,VALID,0.107441,VALID,19.0622,VALID,350,VALID,0,
2012-10-27, 00:42:04,VALID,915.647,VALID,0,VALID,97.2519,VALID,0,VALID,19.0232,VALID,350,VALID,0,
2012-10-27, 00:43:04,VALID,915.6,VALID,0,VALID,97.2443,VALID,0,VALID,19.0637,VALID,351,VALID,0,
2012-10-27, 00:44:04,VALID,915.603,VALID,0,VALID,97.2519,VALID,0,VALID,19.0637,VALID,351,VALID,0,
2012-10-27, 00:45:04,VALID,915.59,VALID,0,VALID,97.2595,VALID,0,VALID,19.0637,VALID,351,VALID,0,
2012-10-27, 00:46:04,VALID,915.574,VALID,0,VALID,97.2672,VALID,0,VALID,19.0442,VALID,351,VALID,0,
2012-10-27, 00:47:04,VALID,915.522,VALID,0,VALID,97.2824,VALID,0,VALID,19.0232,VALID,351,VALID,0,
2012-10-27, 00:48:04,VALID,915.544,VALID,0,VALID,97.2672,VALID,0,VALID,19.0442,VALID,351,VALID,0,
2012-10-27, 00:49:04,VALID,915.503,VALID,0,VALID,97.29,VALID,0,VALID,19.0232,VALID,351,VALID,0,
2012-10-27, 00:50:04,VALID,915.504,VALID,0,VALID,97.2748,VALID,0,VALID,19.0637,VALID,351,VALID,0,
2012-10-27, 00:51:04,VALID,915.472,VALID,0,VALID,97.2977,VALID,0,VALID,19.0832,VALID,351,VALID,0,
2012-10-27, 00:52:04,VALID,915.494,VALID,0,VALID,97.29,VALID,0,VALID,19.0832,VALID,351,VALID,0,
2012-10-27, 00:53:04,VALID,915.472,VALID,0,VALID,97.3053,VALID,0,VALID,19.0832,VALID,351,VALID,0,
2012-10-27, 00:54:04,VALID,915.481,VALID,0,VALID,97.2824,VALID,0,VALID,19.0817,VALID,351,VALID,0,
2012-10-27, 00:55:04,VALID,915.467,VALID,0,VALID,97.2824,VALID,0,VALID,19.0832,VALID,351,VALID,0,
2012-10-27, 00:56:04,VALID,915.421,VALID,0,VALID,97.3053,VALID,0,VALID,19.0817,VALID,351,VALID,0,
2012-10-27, 00:57:04,VALID,915.42,VALID,0,VALID,97.3053,VALID,0,VALID,19.1027,VALID,351,VALID,0,
2012-10-27, 00:58:04,VALID,915.361,VALID,0,VALID,97.3053,VALID,0,VALID,19.1027,VALID,351,VALID,0,
2012-10-27, 00:59:04,VALID,915.347,VALID,0,VALID,97.3129,VALID,0,VALID,19.1012,VALID,351,VALID,0,
2012-10-27, 01:00:04,VALID,915.299,VALID,0,VALID,97.3129,VALID,0,VALID,19.1012,VALID,351,VALID,0,
2012-10-27, 01:01:04,VALID,915.313,VALID,0,VALID,97.2824,VALID,0,VALID,19.1012,VALID,351,VALID,0,
2012-10-27, 01:02:04,VALID,915.292,VALID,0,VALID,97.3053,VALID,0,VALID,19.1207,VALID,351,VALID,0,
2012-10-27, 01:03:04,VALID,915.276,VALID,0,VALID,97.3053,VALID,0,VALID,19.1207,VALID,351,VALID,0,
2012-10-27, 01:04:04,VALID,915.268,VALID,0,VALID,97.3205,VALID,0,VALID,19.1012,VALID,351,VALID,0,
2012-10-27, 01:05:04,VALID,915.198,VALID,0,VALID,97.3358,VALID,0,VALID,19.1417,VALID,351,VALID,0,
2012-10-27, 01:06:04,VALID,915.182,VALID,0,VALID,97.3358,VALID,0,VALID,19.1207,VALID,351,VALID,0,
2012-10-27, 01:07:04,VALID,915.178,VALID,0,VALID,97.3053,VALID,0,VALID,19.1012,VALID,351,VALID,0,
2012-10-27, 01:08:04,VALID,915.132,VALID,0,VALID,97.3281,VALID,0,VALID,19.1012,VALID,351,VALID,0,
2012-10-27, 01:09:04,VALID,915.131,VALID,0,VALID,97.3129,VALID,0,VALID,19.1012,VALID,351,VALID,0,
2012-10-27, 01:10:04,VALID,915.072,VALID,0,VALID,97.3129,VALID,0,VALID,19.1207,VALID,351,VALID,0,
2012-10-27, 01:11:04,VALID,915.056,VALID,0,VALID,97.3205,VALID,0,VALID,19.1222,VALID,332,VALID,0,
2012-10-27, 01:12:04,VALID,915.06,VALID,0,VALID,97.3053,VALID,0,VALID,19.1012,VALID,340,VALID,0,
2012-10-27, 01:13:04,VALID,915.04,VALID,0,VALID,97.3053,VALID,0,VALID,19.1012,VALID,340,VALID,0,
2012-10-27, 01:14:04,VALID,915.058,VALID,0,VALID,97.3205,VALID,0,VALID,19.1222,VALID,340,VALID,0,
2012-10-27, 01:15:04,VALID,915.003,VALID,0,VALID,97.3129,VALID,0,VALID,19.1207,VALID,340,VALID,0,
2012-10-27, 01:16:04,VALID,915.005,VALID,0,VALID,97.3129,VALID,0,VALID,19.1012,VALID,341,VALID,0,
2012-10-27, 01:17:04,VALID,914.964,VALID,0,VALID,97.3129,VALID,0,VALID,19.1012,VALID,342,VALID,0,
2012-10-27, 01:18:04,VALID,914.964,VALID,0,VALID,97.3053,VALID,0,VALID,19.0817,VALID,342,VALID,0,
2012-10-27, 01:19:04,VALID,914.956,VALID,0,VALID,97.2977,VALID,0,VALID,19.0817,VALID,342,VALID,0,
2012-10-27, 01:20:04,VALID,914.947,VALID,0,VALID,97.2824,VALID,0,VALID,19.0817,VALID,342,VALID,0,
2012-10-27, 01:21:04,VALID,914.955,VALID,0,VALID,97.3205,VALID,0,VALID,19.0832,VALID,342,VALID,0,
2012-10-27, 01:22:04,VALID,914.941,VALID,0,VALID,97.2977,VALID,0,VALID,19.0817,VALID,342,VALID,0,
2012-10-27, 01:23:04,VALID,914.96,VALID,0,VALID,97.3205,VALID,0,VALID,19.0817,VALID,342,VALID,0,
2012-10-27, 01:24:04,VALID,914.932,VALID,0,VALID,97.3281,VALID,0,VALID,19.0622,VALID,352,VALID,0,
2012-10-27, 01:25:04,VALID,914.936,VALID,0,VALID,97.3358,VALID,0,VALID,19.0637,VALID,5,VALID,0,
2012-10-27, 01:26:04,VALID,914.913,VALID,0,VALID,97.3281,VALID,0,VALID,19.0622,VALID,5,VALID,0,
2012-10-27, 01:27:04,VALID,914.901,VALID,0,VALID,97.351,VALID,0,VALID,19.0622,VALID,5,VALID,0,
2012-10-27, 01:28:04,VALID,914.881,VALID,0,VALID,97.3434,VALID,0,VALID,19.0622,VALID,5,VALID,0,
2012-10-27, 01:29:04,VALID,914.879,VALID,0,VALID,97.3281,VALID,0,VALID,19.0637,VALID,5,VALID,0,
2012-10-27, 01:30:04,VALID,914.827,VALID,0,VALID,97.3434,VALID,0,VALID,19.0427,VALID,5,VALID,0,
2012-10-27, 01:31:04,VALID,914.826,VALID,0,VALID,97.3434,VALID,0,VALID,19.0637,VALID,5,VALID,0,
2012-10-27, 01:32:04,VALID,914.808,VALID,0,VALID,97.3663,VALID,0,VALID,19.0622,VALID,5,VALID,0,
2012-10-27, 01:33:04,VALID,914.782,VALID,0,VALID,97.351,VALID,0,VALID,19.0622,VALID,5,VALID,0,
2012-10-27, 01:34:04,VALID,914.768,VALID,0,VALID,97.3739,VALID,0,VALID,19.0637,VALID,5,VALID,0,
2012-10-27, 01:35:04,VALID,914.741,VALID,0,VALID,97.3815,VALID,0,VALID,19.0622,VALID,5,VALID,0,
2012-10-27, 01:36:04,VALID,914.703,VALID,0,VALID,97.3663,VALID,0,VALID,19.0232,VALID,5,VALID,0,
2012-10-27, 01:37:04,VALID,914.719,VALID,0,VALID,97.3815,VALID,0,VALID,19.0637,VALID,5,VALID,0,
2012-10-27, 01:38:04,VALID,914.74,VALID,0,VALID,97.4044,VALID,0,VALID,19.0232,VALID,5,VALID,0,
2012-10-27, 01:39:04,VALID,914.694,VALID,0,VALID,97.3815,VALID,0,VALID,19.0637,VALID,5,VALID,0,
2012-10-27, 01:40:04,VALID,914.72,VALID,0,VALID,97.3891,VALID,0,VALID,19.0637,VALID,5,VALID,0,
2012-10-27, 01:41:04,VALID,914.727,VALID,0,VALID,97.3891,VALID,0,VALID,19.0232,VALID,5,VALID,0,
2012-10-27, 01:42:04,VALID,914.752,VALID,0,VALID,97.4044,VALID,0,VALID,19.0232,VALID,5,VALID,0,
2012-10-27, 01:43:04,VALID,914.715,VALID,0,VALID,97.4044,VALID,0,VALID,19.0232,VALID,5,VALID,0,
2012-10-27, 01:44:04,VALID,914.718,VALID,0,VALID,97.412,VALID,0,VALID,19.0232,VALID,5,VALID,0,
2012-10-27, 01:45:04,VALID,914.721,VALID,0,VALID,97.412,VALID,0,VALID,19.0442,VALID,5,VALID,0,
2012-10-27, 01:46:04,VALID,914.726,VALID,0,VALID,97.3968,VALID,0,VALID,19.0037,VALID,6,VALID,0,
2012-10-27, 01:47:04,VALID,914.719,VALID,0,VALID,97.412,VALID,0,VALID,19.0247,VALID,5,VALID,0,
2012-10-27, 01:48:04,VALID,914.709,VALID,0,VALID,97.4349,VALID,0,VALID,19.0052,VALID,5,VALID,0,
2012-10-27, 01:49:04,VALID,914.7,VALID,0,VALID,97.4425,VALID,0,VALID,19.0037,VALID,5,VALID,0,
2012-10-27, 01:50:04,VALID,914.685,VALID,0,VALID,97.4349,VALID,0,VALID,19.0037,VALID,5,VALID,0,
2012-10-27, 01:51:04,VALID,914.728,VALID,0,VALID,97.4425,VALID,0,VALID,19.0037,VALID,5,VALID,0,
2012-10-27, 01:52:04,VALID,914.697,VALID,0,VALID,97.4501,VALID,0,VALID,19.0037,VALID,5,VALID,0,
2012-10-27, 01:53:04,VALID,914.714,VALID,0,VALID,97.473,VALID,0,VALID,19.0037,VALID,344,VALID,0,
2012-10-27, 01:54:04,VALID,914.697,VALID,0,VALID,97.4577,VALID,0,VALID,19.0037,VALID,344,VALID,0,
2012-10-27, 01:55:04,VALID,914.718,VALID,0,VALID,97.4577,VALID,0,VALID,19.0052,VALID,344,VALID,0,
2012-10-27, 01:56:04,VALID,914.724,VALID,0,VALID,97.473,VALID,0,VALID,19.0247,VALID,343,VALID,0,
2012-10-27, 01:57:04,VALID,914.727,VALID,0,VALID,97.4654,VALID,0,VALID,19.0037,VALID,15,VALID,0,
2012-10-27, 01:58:04,VALID,914.717,VALID,0,VALID,97.4806,VALID,0,VALID,19.0037,VALID,331,VALID,0,
2012-10-27, 01:59:04,VALID,914.709,VALID,0,VALID,97.4654,VALID,0,VALID,19.0037,VALID,331,VALID,0,
2012-10-27, 02:00:04,VALID,914.721,VALID,0,VALID,97.473,VALID,0,VALID,19.0232,VALID,331,VALID,0,
2012-10-27, 02:01:04,VALID,914.709,VALID,0,VALID,97.4654,VALID,0,VALID,19.0232,VALID,331,VALID,0,
2012-10-27, 02:02:04,VALID,914.696,VALID,0,VALID,97.5035,VALID,0,VALID,19.0232,VALID,331,VALID,0,
2012-10-27, 02:03:04,VALID,914.709,VALID,0,VALID,97.473,VALID,0,VALID,19.0232,VALID,331,VALID,0,
2012-10-27, 02:04:04,VALID,914.688,VALID,0,VALID,97.4806,VALID,0,VALID,19.0442,VALID,331,VALID,0,
2012-10-27, 02:05:04,VALID,914.687,VALID,0,VALID,97.4806,VALID,0,VALID,19.0427,VALID,331,VALID,0,
2012-10-27, 02:06:04,VALID,914.7,VALID,0,VALID,97.5111,VALID,0,VALID,19.0427,VALID,331,VALID,0,
2012-10-27, 02:07:04,VALID,914.67,VALID,0,VALID,97.4806,VALID,0,VALID,19.0427,VALID,331,VALID,0,
2012-10-27, 02:08:04,VALID,914.665,VALID,0,VALID,97.4882,VALID,0,VALID,19.0427,VALID,331,VALID,0,
2012-10-27, 02:09:04,VALID,914.635,VALID,0,VALID,97.4882,VALID,0,VALID,19.0427,VALID,331,VALID,0,
2012-10-27, 02:10:04,VALID,914.652,VALID,0,VALID,97.4882,VALID,0,VALID,19.0427,VALID,331,VALID,0,
2012-10-27, 02:11:04,VALID,914.594,VALID,0,VALID,97.4806,VALID,0,VALID,19.0832,VALID,331,VALID,0,
2012-10-27, 02:12:04,VALID,914.606,VALID,0,VALID,97.4882,VALID,0,VALID,19.0622,VALID,331,VALID,0,
2012-10-27, 02:13:04,VALID,914.58,VALID,0,VALID,97.4959,VALID,0,VALID,19.0622,VALID,331,VALID,0,
2012-10-27, 02:14:04,VALID,914.594,VALID,0,VALID,97.5035,VALID,0,VALID,19.0622,VALID,331,VALID,0,
2012-10-27, 02:15:04,VALID,914.587,VALID,0,VALID,97.4806,VALID,0,VALID,19.0817,VALID,331,VALID,0,
2012-10-27, 02:16:04,VALID,914.558,VALID,0,VALID,97.4806,VALID,0,VALID,19.0622,VALID,331,VALID,0,
2012-10-27, 02:17:04,VALID,914.606,VALID,0,VALID,97.4959,VALID,0,VALID,19.0832,VALID,331,VALID,0,
2012-10-27, 02:18:04,VALID,914.599,VALID,0,VALID,97.4882,VALID,0,VALID,19.0413,VALID,331,VALID,0,
2012-10-27, 02:19:04,VALID,914.602,VALID,0,VALID,97.4882,VALID,0,VALID,19.0427,VALID,331,VALID,0,
2012-10-27, 02:20:04,VALID,914.609,VALID,0,VALID,97.4882,VALID,0,VALID,19.0832,VALID,331,VALID,0,
2012-10-27, 02:21:04,VALID,914.609,VALID,0,VALID,97.4882,VALID,0,VALID,19.0832,VALID,331,VALID,0,
2012-10-27, 02:22:04,VALID,914.612,VALID,0,VALID,97.5035,VALID,0,VALID,19.0427,VALID,331,VALID,0,
2012-10-27, 02:23:04,VALID,914.627,VALID,0,VALID,97.5187,VALID,0,VALID,19.0622,VALID,331,VALID,0,
2012-10-27, 02:24:04,VALID,914.628,VALID,0,VALID,97.5187,VALID,0,VALID,19.0427,VALID,331,VALID,0,
2012-10-27, 02:25:04,VALID,914.588,VALID,0,VALID,97.4882,VALID,0,VALID,19.0622,VALID,331,VALID,0,
2012-10-27, 02:26:04,VALID,914.565,VALID,0,VALID,97.4882,VALID,0,VALID,19.0637,VALID,331,VALID,0,
2012-10-27, 02:27:04,VALID,914.585,VALID,0,VALID,97.5035,VALID,0,VALID,19.0622,VALID,331,VALID,0,
2012-10-27, 02:28:04,VALID,914.556,VALID,0,VALID,97.5035,VALID,0,VALID,19.0427,VALID,331,VALID,0,
2012-10-27, 02:29:04,VALID,914.572,VALID,0,VALID,97.4959,VALID,0,VALID,19.0622,VALID,331,VALID,0,
2012-10-27, 02:30:04,VALID,914.549,VALID,0,VALID,97.4882,VALID,0,VALID,19.0442,VALID,331,VALID,0,
2012-10-27, 02:31:04,VALID,914.562,VALID,0,VALID,97.5035,VALID,0,VALID,19.0232,VALID,331,VALID,0,
2012-10-27, 02:32:04,VALID,914.516,VALID,0,VALID,97.4959,VALID,0,VALID,19.0442,VALID,331,VALID,0,
2012-10-27, 02:33:04,VALID,914.555,VALID,0,VALID,97.5035,VALID,0,VALID,19.0232,VALID,331,VALID,0,
2012-10-27, 02:34:04,VALID,914.518,VALID,0,VALID,97.4959,VALID,0,VALID,19.0442,VALID,332,VALID,0,
2012-10-27, 02:35:04,VALID,914.523,VALID,0,VALID,97.5035,VALID,0,VALID,19.0442,VALID,332,VALID,0,
2012-10-27, 02:36:04,VALID,914.511,VALID,0,VALID,97.5035,VALID,0,VALID,19.0427,VALID,332,VALID,0,
2012-10-27, 02:37:04,VALID,914.483,VALID,0,VALID,97.5111,VALID,0,VALID,19.0232,VALID,332,VALID,0,
2012-10-27, 02:38:04,VALID,914.508,VALID,0,VALID,97.5111,VALID,0,VALID,19.0622,VALID,332,VALID,0,
2012-10-27, 02:39:04,VALID,914.513,VALID,0,VALID,97.5111,VALID,0,VALID,19.0622,VALID,332,VALID,0,
2012-10-27, 02:40:04,VALID,914.516,VALID,0,VALID,97.5111,VALID,0,VALID,19.0622,VALID,332,VALID,0,
2012-10-27, 02:41:04,VALID,914.488,VALID,0,VALID,97.5264,VALID,0,VALID,19.0622,VALID,332,VALID,0,
2012-10-27, 02:42:04,VALID,914.478,VALID,0,VALID,97.5035,VALID,0,VALID,19.0622,VALID,332,VALID,0,
2012-10-27, 02:43:04,VALID,914.514,VALID,0,VALID,97.5264,VALID,0,VALID,19.0622,VALID,332,VALID,0,
2012-10-27, 02:44:04,VALID,914.486,VALID,0,VALID,97.5035,VALID,0,VALID,19.0622,VALID,332,VALID,0,
2012-10-27, 02:45:04,VALID,914.492,VALID,0,VALID,97.4959,VALID,0,VALID,19.0817,VALID,332,VALID,0,
2012-10-27, 02:46:04,VALID,914.503,VALID,0,VALID,97.4882,VALID,0,VALID,19.0817,VALID,332,VALID,0,
2012-10-27, 02:47:04,VALID,914.533,VALID,0,VALID,97.4959,VALID,0,VALID,19.0803,VALID,332,VALID,0,
2012-10-27, 02:48:04,VALID,914.515,VALID,0,VALID,97.5035,VALID,0,VALID,19.0817,VALID,332,VALID,0,
2012-10-27, 02:49:04,VALID,914.529,VALID,0,VALID,97.5035,VALID,0,VALID,19.0817,VALID,332,VALID,0,
2012-10-27, 02:50:04,VALID,914.534,VALID,0,VALID,97.4959,VALID,0,VALID,19.0817,VALID,333,VALID,0,
2012-10-27, 02:51:04,VALID,914.488,VALID,0,VALID,97.4959,VALID,0,VALID,19.0817,VALID,345,VALID,0,
2012-10-27, 02:52:04,VALID,914.492,VALID,0,VALID,97.4959,VALID,0,VALID,19.0817,VALID,345,VALID,0,
2012-10-27, 02:53:04,VALID,914.471,VALID,0,VALID,97.4882,VALID,0,VALID,19.1012,VALID,345,VALID,0,
2012-10-27, 02:54:04,VALID,914.457,VALID,0,VALID,97.5035,VALID,0,VALID,19.0803,VALID,341,VALID,0,
2012-10-27, 02:55:04,VALID,914.486,VALID,0,VALID,97.4959,VALID,0,VALID,19.0817,VALID,341,VALID,0,
2012-10-27, 02:56:04,VALID,914.471,VALID,0,VALID,97.4959,VALID,0,VALID,19.0817,VALID,341,VALID,0,
2012-10-27, 02:57:04,VALID,914.479,VALID,0,VALID,97.4806,VALID,0,VALID,19.0817,VALID,341,VALID,0,
2012-10-27, 02:58:04,VALID,914.479,VALID,0,VALID,97.4882,VALID,0,VALID,19.1012,VALID,341,VALID,0,
2012-10-27, 02:59:04,VALID,914.462,VALID,0,VALID,97.473,VALID,0,VALID,19.1012,VALID,341,VALID,0,
2012-10-27, 03:00:04,VALID,914.45,VALID,0,VALID,97.473,VALID,0,VALID,19.1012,VALID,341,VALID,0,
2012-10-27, 03:01:04,VALID,914.448,VALID,0,VALID,97.473,VALID,0.107441,VALID,19.1012,VALID,341,VALID,0,
2012-10-27, 03:02:04,VALID,914.419,VALID,0,VALID,97.4654,VALID,0,VALID,19.1207,VALID,341,VALID,0,
2012-10-27, 03:03:04,VALID,914.424,VALID,0,VALID,97.4959,VALID,0,VALID,19.1012,VALID,341,VALID,0,
2012-10-27, 03:04:04,VALID,914.442,VALID,0,VALID,97.473,VALID,0,VALID,19.1207,VALID,341,VALID,0,
2012-10-27, 03:05:04,VALID,914.41,VALID,0,VALID,97.4806,VALID,0,VALID,19.1417,VALID,341,VALID,0,
2012-10-27, 03:06:04,VALID,914.435,VALID,0,VALID,97.473,VALID,0,VALID,19.1402,VALID,341,VALID,0,
2012-10-27, 03:07:04,VALID,914.413,VALID,0,VALID,97.4806,VALID,0,VALID,19.1402,VALID,341,VALID,0,
2012-10-27, 03:08:04,VALID,914.435,VALID,0,VALID,97.4882,VALID,0,VALID,19.1207,VALID,341,VALID,0,
2012-10-27, 03:09:04,VALID,914.447,VALID,0,VALID,97.4501,VALID,0,VALID,19.1402,VALID,341,VALID,0,
2012-10-27, 03:10:04,VALID,914.459,VALID,0.2,VALID,97.4425,VALID,0,VALID,19.1193,VALID,341,VALID,0,
2012-10-27, 03:11:04,VALID,914.46,VALID,0,VALID,97.4501,VALID,0,VALID,19.1402,VALID,341,VALID,0,
2012-10-27, 03:12:04,VALID,914.51,VALID,0.2,VALID,97.4501,VALID,0,VALID,19.1207,VALID,341,VALID,0,
2012-10-27, 03:13:04,VALID,914.486,VALID,0.2,VALID,97.4577,VALID,0,VALID,19.1222,VALID,341,VALID,0,
2012-10-27, 03:14:04,VALID,914.446,VALID,0,VALID,97.4654,VALID,0,VALID,19.1012,VALID,341,VALID,0,
2012-10-27, 03:15:04,VALID,914.474,VALID,0.2,VALID,97.4654,VALID,0,VALID,19.1222,VALID,341,VALID,0,
2012-10-27, 03:16:04,VALID,914.453,VALID,0,VALID,97.4654,VALID,0,VALID,19.1207,VALID,341,VALID,0,
2012-10-27, 03:17:04,VALID,914.455,VALID,0.2,VALID,97.4654,VALID,0,VALID,19.1012,VALID,341,VALID,0,
2012-10-27, 03:18:04,VALID,914.462,VALID,0,VALID,97.4577,VALID,0,VALID,19.1012,VALID,341,VALID,0,
2012-10-27, 03:19:04,VALID,914.452,VALID,0.2,VALID,97.4806,VALID,0,VALID,19.1207,VALID,341,VALID,0,
2012-10-27, 03:20:04,VALID,914.421,VALID,0,VALID,97.4882,VALID,0,VALID,19.0998,VALID,341,VALID,0,
2012-10-27, 03:21:04,VALID,914.416,VALID,0.2,VALID,97.4806,VALID,0,VALID,19.1207,VALID,341,VALID,0,
2012-10-27, 03:22:04,VALID,914.421,VALID,0,VALID,97.473,VALID,0,VALID,19.1012,VALID,341,VALID,0,
2012-10-27, 03:23:04,VALID,914.399,VALID,0,VALID,97.4654,VALID,0,VALID,19.1012,VALID,341,VALID,0,
2012-10-27, 03:24:04,VALID,914.398,VALID,0,VALID,97.4806,VALID,0,VALID,19.1207,VALID,341,VALID,0,
2012-10-27, 03:25:04,VALID,914.391,VALID,0,VALID,97.4959,VALID,0,VALID,19.0998,VALID,341,VALID,0,
2012-10-27, 03:26:04,VALID,914.399,VALID,0,VALID,97.4959,VALID,0,VALID,19.1207,INVALID,360,VALID,0,
2012-10-27, 03:27:04,VALID,914.395,VALID,0,VALID,97.4882,VALID,0,VALID,19.1207,VALID,341,VALID,0,
2012-10-27, 03:28:04,VALID,914.433,VALID,0,VALID,97.4959,VALID,0,VALID,19.1207,VALID,341,VALID,0,
2012-10-27, 03:29:04,VALID,914.391,VALID,0,VALID,97.4806,VALID,0,VALID,19.1417,VALID,341,VALID,0,
2012-10-27, 03:30:04,VALID,914.392,VALID,0,VALID,97.5035,VALID,0,VALID,19.1012,VALID,341,VALID,0,
2012-10-27, 03:31:04,VALID,914.397,VALID,0,VALID,97.4882,VALID,0,VALID,19.0817,VALID,341,VALID,0,
2012-10-27, 03:32:04,VALID,914.409,VALID,0,VALID,97.5035,VALID,0,VALID,19.0817,VALID,341,VALID,0,
2012-10-27, 03:33:04,VALID,914.399,VALID,0,VALID,97.4806,VALID,0,VALID,19.0817,VALID,341,VALID,0,
2012-10-27, 03:34:04,VALID,914.403,VALID,0,VALID,97.4959,VALID,0,VALID,19.1012,VALID,341,VALID,0,
2012-10-27, 03:35:04,VALID,914.433,VALID,0,VALID,97.4959,VALID,0,VALID,19.1012,VALID,341,VALID,0,
2012-10-27, 03:36:04,VALID,914.408,VALID,0,VALID,97.5035,VALID,0,VALID,19.0817,VALID,340,VALID,0,
2012-10-27, 03:37:04,VALID,914.419,VALID,0,VALID,97.4882,VALID,0,VALID,19.1207,VALID,341,VALID,0,
2012-10-27, 03:38:04,VALID,914.43,VALID,0,VALID,97.4959,VALID,0,VALID,19.1012,VALID,341,VALID,0,
2012-10-27, 03:39:04,VALID,914.425,VALID,0,VALID,97.4882,VALID,0,VALID,19.1012,VALID,341,VALID,0,
2012-10-27, 03:40:04,VALID,914.432,VALID,0,VALID,97.4882,VALID,0,VALID,19.1207,VALID,341,VALID,0,
2012-10-27, 03:41:04,VALID,914.434,VALID,0,VALID,97.5187,VALID,0,VALID,19.1012,VALID,341,VALID,0,
2012-10-27, 03:42:04,VALID,914.468,VALID,0,VALID,97.5111,VALID,0,VALID,19.1207,VALID,341,VALID,0,
2012-10-27, 03:43:04,VALID,914.47,VALID,0,VALID,97.5187,VALID,0,VALID,19.1207,VALID,341,VALID,0,
2012-10-27, 03:44:04,VALID,914.488,VALID,0,VALID,97.5187,VALID,0,VALID,19.1193,VALID,341,VALID,0,
2012-10-27, 03:45:04,VALID,914.517,VALID,0,VALID,97.5264,VALID,0,VALID,19.1402,VALID,341,VALID,0,
2012-10-27, 03:46:04,VALID,914.493,VALID,0,VALID,97.534,VALID,0,VALID,19.1402,VALID,341,VALID,0,
2012-10-27, 03:47:04,VALID,914.482,VALID,0,VALID,97.5264,VALID,0,VALID,19.1807,VALID,341,VALID,0,
2012-10-27, 03:48:04,VALID,914.509,VALID,0,VALID,97.5187,VALID,0,VALID,19.1597,VALID,341,VALID,0,
2012-10-27, 03:49:04,VALID,914.465,VALID,0,VALID,97.5264,VALID,0,VALID,19.1807,VALID,341,VALID,0,
2012-10-27, 03:50:04,VALID,914.479,VALID,0,VALID,97.5187,VALID,0,VALID,19.1807,VALID,341,VALID,0,
2012-10-27, 03:51:04,VALID,914.485,VALID,0,VALID,97.5187,VALID,0,VALID,19.1402,VALID,340,VALID,0,
2012-10-27, 03:52:04,VALID,914.475,VALID,0,VALID,97.534,VALID,0,VALID,19.1207,VALID,341,VALID,0,
2012-10-27, 03:53:04,VALID,914.494,VALID,0,VALID,97.5035,VALID,0,VALID,19.1207,VALID,341,VALID,0,
2012-10-27, 03:54:04,VALID,914.467,VALID,0.2,VALID,97.5264,VALID,0,VALID,19.1417,VALID,341,VALID,0,
2012-10-27, 03:55:04,VALID,914.447,VALID,0,VALID,97.5187,VALID,0,VALID,19.1207,VALID,341,VALID,0,
2012-10-27, 03:56:04,VALID,914.407,VALID,0,VALID,97.5111,VALID,0,VALID,19.1612,VALID,340,VALID,0,
2012-10-27, 03:57:04,VALID,914.444,VALID,0,VALID,97.5187,VALID,0,VALID,19.1193,VALID,341,VALID,0,
2012-10-27, 03:58:04,VALID,914.41,VALID,0,VALID,97.5264,VALID,0.107441,VALID,19.1178,VALID,341,VALID,0,
2012-10-27, 03:59:04,VALID,914.406,VALID,0,VALID,97.5264,VALID,0,VALID,19.1388,VALID,341,VALID,0,